Location: Blue Mountain Vista Observatory
(40.6992°N, 75.9422°W)
Time: 06:37:40
(UTC-04:00)

Daily predictions for brighter satellites

Satellite Brightness Start Highest point End
(mag) Time Altitude Azimuth Time Altitude Azimuth Time Altitude Azimuth
Cosmos 1939 Rocket 3.2 20:49:56 10° SSE 20:53:57 53° ENE 20:57:59 10° N
Cosmos 1862 Rocket 3.9 20:50:19 10° NNW 20:54:49 73° W 20:59:16 10° S
Spot 2 Rocket 3.9 20:51:45 10° S 20:56:49 70° WSW 21:01:57 10° NNW
Cosmos 1408 4.2 20:55:08 10° SE 20:57:48 19° E 21:00:29 10° NE
USA 215 4.3 20:52:28 10° E 20:58:24 38° NNE 21:04:21 10° NW
ISS -3.7 20:56:57 10° WSW 21:00:11 78° NW 21:03:26 10° NE
Resurs 01 Rocket 2.7 20:59:47 10° S 21:04:01 46° W 21:08:19 10° NNW
Tiangong 2 1.9 21:03:03 10° W 21:06:06 40° SSW 21:09:02 11° SE
Cosmos 2082 Rocket 4.4 21:01:57 10° NW 21:06:23 24° WSW 21:10:49 10° SSW
NOSS 3-2 (C) 4.0 21:00:27 10° SW 21:06:24 67° NW 21:13:00 10° NNE
Meteor 2-3 Rocket 3.8 21:05:25 10° S 21:11:08 90° SSE 21:16:50 10° N
CZ-4B DEB 3.2 21:09:38 10° SE 21:12:20 37° ENE 21:15:05 10° N
Cosmos 2346 Rocket 4.5 21:08:20 10° S 21:14:23 88° E 21:20:29 10° N
Cosmos 1825 3.1 21:11:20 10° SSE 21:14:36 28° E 21:17:52 10° NNE
Okean 1-7 3.5 21:10:54 10° N 21:15:09 45° ENE 21:19:21 10° SSE
CENTAUR R/B 2.6 21:11:31 10° SSW 21:17:16 55° ESE 21:23:47 10° NE
Cosmos 1782 3.3 21:17:06 10° N 21:20:54 41° ENE 21:24:10 13° SSE
Cosmos 2344 4.0 21:14:05 10° S 21:21:03 39° ESE 21:28:26 10° NE
Cosmos 2142 Rocket 4.5 21:15:20 10° N 21:21:27 69° E 21:27:34 10° SSE
SPOT 5 4.3 21:17:37 12° ESE 21:21:40 27° ENE 21:26:03 10° N
Shenzhou-11 Module 3.7 21:19:39 10° W 21:22:09 23° SSW 21:24:15 12° SSE
Envisat 3.7 21:18:57 10° S 21:23:55 56° W 21:28:56 10° NNW
Cosmos 372 Rocket 4.3 21:19:43 10° S 21:24:34 44° ESE 21:29:24 10° NNE
H-2A ROCKET BODY 3.5 21:27:55 10° SSW 21:30:11 16° SSE 21:32:05 14° SE
Cosmos 1703 Rocket 3.7 21:27:44 10° N 21:32:09 77° W 21:36:30 10° S
DNEPR-1 R/B 3.7 21:28:16 10° SSW 21:33:34 69° ESE 21:38:06 10° NE
Cosmos 1943 Rocket 2.2 21:28:14 10° S 21:33:43 60° ESE 21:39:11 10° NNE
Cosmos 1892 4.4 21:30:44 10° SW 21:34:16 35° WNW 21:37:49 10° N
Cosmos 1269 Rocket 4.3 21:32:10 10° N 21:37:21 53° ENE 21:41:09 18° SE
Cosmos 1125 Rocket 3.4 21:34:27 10° SSW 21:39:41 75° ESE 21:44:55 10° NNE
deb Kosmos-1763 4.4 21:37:12 10° N 21:40:55 54° ENE 21:43:07 22° SE
Cosmos 1862 4.0 21:38:56 19° SE 21:41:13 34° E 21:44:50 10° NNE
Cosmos 1733 Rocket 4.0 21:40:35 20° SE 21:42:34 28° E 21:46:18 10° NNE
Helios 1B rocket 2.8 21:38:40 10° N 21:42:45 65° WNW 21:46:48 10° SSW
Cosmos 2084 4.0 21:43:37 10° NW 21:47:17 44° WSW 21:50:04 17° S
NOAA 11 4.2 21:44:20 14° SSE 21:49:07 82° ENE 21:54:38 10° NNW
Cosmos 2263 4.3 21:43:35 10° SSW 21:49:22 81° WNW 21:55:08 10° NNE
Cosmos 1340 2.8 21:45:51 10° N 21:49:36 56° ENE 21:51:34 25° SSE
Cosmos 1869 Rocket 4.1 21:46:10 10° SSW 21:50:26 59° W 21:54:46 10° N
Lacrosse 4 Rocket 1.8 21:47:46 10° NNW 21:52:12 56° ENE 21:54:34 25° SE
SAR-Lupe-4 4.0 21:52:13 15° S 21:54:59 58° WSW 21:58:33 10° NNW
Cosmos 2369 Rocket 3.2 21:53:48 10° SW 21:59:14 48° WNW 22:04:47 10° NNE
ATLAS CENTAUR R/B 3.4 22:02:49 12° ENE 22:02:49 12° ENE 22:03:19 10° ENE
SL-08 RB Rocket 3.9 22:00:56 26° SE 22:03:24 58° ENE 22:07:59 10° N
YAOGAN 6 4.5 22:01:15 10° SSW 22:04:28 28° W 22:07:42 10° NW
Cosmos 158 Rocket 3.9 22:02:20 10° NNW 22:07:13 72° WSW 22:10:14 23° S
Cosmos 1606 3.3 22:04:01 10° NNW 22:07:43 54° W 22:10:12 19° SSW
Cosmos 1867 4.4 22:03:24 10° NNW 22:08:30 38° NE 22:11:15 23° ESE
Cosmos 1833 4.2 22:02:44 10° NNW 22:08:33 76° ENE 22:11:43 28° SSE
H-2A R/B 2.2 22:11:04 28° SE 22:13:51 61° ENE 22:19:06 10° N
Cosmos 2297 Rocket 4.5 22:16:16 10° NNE 22:18:05 11° NE 22:19:54 10° ENE
MetOp-B 4.4 22:14:45 20° S 22:18:29 68° WSW 22:23:50 10° NNW
GPS 2-04 Rocket1 3.8 22:15:56 10° WSW 22:18:45 25° SSW 22:18:45 25° SSW
ATLAS 5 CENTAUR R/B 2.5 22:13:14 10° NW 22:19:18 77° WSW 22:22:52 29° SSE
Cosmos 1674 Rocket 3.7 22:15:52 10° N 22:20:06 52° E 22:21:11 40° SE
Lacrosse 5 rocket 3.6 22:17:33 10° W 22:20:29 23° NNW 22:23:29 10° NNE
Landsat 7 4.2 22:21:54 35° ESE 22:23:25 48° ENE 22:28:00 10° N
ERS-1 Rocket 3.9 22:23:38 15° SSW 22:27:24 42° W 22:32:12 10° NNW
Cosmos 1656 Rocket 3.5 22:25:33 14° SSW 22:30:17 78° ESE 22:35:49 10° NNE
BREEZE-M DEB (TANK) 3.7 22:27:34 10° NW 22:31:10 73° NNE 22:40:24 20° ESE
ARGOS 3.5 22:28:52 24° S 22:32:05 62° WSW 22:37:24 10° NNW
H-2A R/B 3.3 22:33:43 24° ENE 22:33:59 24° ENE 22:37:19 10° NNE
Meteor 1-27 Rocket 4.0 22:28:29 10° NNW 22:34:11 67° W 22:37:24 26° S
Nadezhda 4 Rocket 3.9 22:30:13 20° S 22:34:45 88° W 22:40:56 10° N
Cosmos 1092 Rocket 3.9 22:31:56 31° SSE 22:34:54 65° E 22:40:59 10° NNE
Okean 3 3.8 22:31:14 10° N 22:35:16 45° E 22:35:35 44° E
IGS 5A 4.0 22:36:31 39° E 22:36:53 40° ENE 22:40:48 10° N
ISS -0.8 22:34:48 10° WNW 22:37:05 17° NNW 22:39:23 10° NNE
Terra 2.2 22:37:35 41° ESE 22:38:34 48° ENE 22:43:09 10° N
USA 215 3.2 22:37:58 34° SE 22:41:04 77° SW 22:47:39 10° NW
Cosmos 1908 Rocket 3.4 22:55:36 69° SSE 22:56:06 83° E 23:00:34 10° N
Cosmos 1437 3.5 22:53:37 10° NNW 22:56:09 51° NNW 22:56:09 51° NNW
SPOT 5 4.1 22:56:52 24° SSW 22:59:30 40° W 23:04:28 10° NNW
Meteor 1-25 Rocket 4.4 22:59:06 48° SE 23:00:00 53° E 23:05:39 10° NNE
Milstar 3 3.7 22:56:28 10° WSW 23:05:15 35° S 23:05:32 35° S
Cosmos 2251 Rocket 3.4 23:01:31 10° NNW 23:06:47 83° WSW 23:07:41 62° S
Okean 2 Rocket 3.9 23:08:46 37° ENE 23:08:46 37° ENE 23:12:07 10° NNE
CENTAUR R/B 4.3 23:02:46 10° WSW 23:08:17 32° NW 23:14:29 10° NNE
Cosmos 2227 Rocket 3.3 23:03:41 10° N 23:08:40 31° ENE 23:10:00 28° E
DMSP B5D2-2 4.3 23:03:44 10° N 23:08:55 66° WNW 23:11:06 34° SW
Cosmos 2219 3.1 23:10:23 10° NNW 23:16:11 85° WSW 23:17:12 62° SSE
Spot 4 4.0 23:17:07 58° E 23:17:15 58° ENE 23:21:59 10° N
Meteor 1-14 Rocket 4.3 23:17:48 48° SSW 23:19:31 82° W 23:25:22 10° N
deb Chang Zheng 4 3.9 23:16:00 10° NNE 23:19:47 58° NE 23:19:47 58° NE
CZ-4 R/B 3.8 23:16:14 10° NNE 23:20:28 64° ENE 23:20:28 64° ENE
Cosmos 1812 3.3 23:17:24 10° N 23:20:33 57° N 23:20:33 57° N
Cosmos 1782 Rocket 3.6 23:23:54 77° NNW 23:23:54 77° NNW 23:28:00 10° N
SME Rocket 4.4 23:22:43 50° SSE 23:24:48 88° ENE 23:34:28 10° NNW
Lacrosse 4 Rocket 3.8 23:28:01 10° WNW 23:30:25 14° WSW 23:30:55 14° WSW
GEOS 3 Rocket 3.5 23:30:20 73° SSW 23:30:39 76° SW 23:35:54 10° NW
Cosmos 2369 4.5 23:33:38 38° E 23:33:38 38° E 23:37:57 10° NE
ATLAS CENTAUR R/B 2.5 23:39:00 37° WNW 23:39:19 38° NW 23:42:57 10° NNE
Gbstr 26 Del rocket 3.9 23:35:45 10° NW 23:39:33 40° NNE 23:39:33 40° NNE
Cosmos 405 Rocket 4.0 23:39:29 10° NNW 23:41:56 36° NW 23:41:56 36° NW
Cosmos 1655 Rocket 3.9 23:42:10 59° SSW 23:43:24 80° W 23:49:40 10° N
Cosmos 1975 Rocket 3.6 23:41:26 10° NNW 23:45:23 55° WNW 23:45:23 55° WNW
CZ-4C R/B 4.2 23:46:58 52° N 23:46:58 52° N 23:50:10 10° N
Okean 1 4.4 23:47:36 10° NNW 23:50:24 43° NNW 23:50:24 43° NNW
ALOS 2 4.1 23:53:43 28° NE 23:53:43 28° NE 23:56:46 10° N
H-2A R/B 4.2 23:51:42 14° WSW 23:53:36 17° W 23:57:00 10° NW
